This demonstration page uses our WeatherBlox Daily Observations layout. Learn more.

38.88101, -77.10428

Hourly Observations for March 31, 2016

Temp ( °F °C ) Dew Point ( °F °C ) Humidity (%) Winds ( mph kmh ) Pressure ( in mb ) Visibility ( mi km ) Precip ( " mm )
12:52 am 00:52 Partly Cloudy 55 12.8 42 5.6 62 62 S 16 26 30.12 1020 10 16.09344 0 0
1:52 am 01:52 Mostly Cloudy 56 13.3 44 6.7 65 65 S 18 30 30.09 1019 10 16.09344 0 0
2:52 am 02:52 Mostly Cloudy 56 13.3 45 7.2 67 67 S 18 30 30.06 1018 10 16.09344 0 0
3:52 am 03:52 Mostly Clear 55 12.8 46 7.8 72 72 S 15 24 30.06 1018 10 16.09344 0 0
4:52 am 04:52 Partly Cloudy 55 12.8 47 8.3 74 74 S 16 26 30.03 1017 10 16.09344 0 0
5:52 am 05:52 Partly Cloudy 55 12.8 47 8.3 74 74 S 14 22 30.03 1017 10 16.09344 0 0
6:52 am 06:52 Mostly Cloudy 55 12.8 48 8.9 77 77 S 13 20 30.03 1017 10 16.09344 0 0
7:52 am 07:52 Mostly Cloudy 56 13.3 49 9.4 77 77 S 14 22 30.03 1017 10 16.09344 0 0
8:52 am 08:52 Cloudy 59 15 49 9.4 69 69 S 15 24 30 1016 10 16.09344 0 0
9:52 am 09:52 Cloudy 63 17.2 50 10 63 63 SSW 25 41 29.97 1015 10 16.09344 0 0
10:52 am 10:52 Cloudy 67 19.4 51 10.6 57 57 SSW 25 41 29.97 1015 10 16.09344 0 0
11:39 am 11:39 Cloudy 68 20 52 11.1 57 57 SSW 24 39 29.94 1014 10 16.09344 0 0
11:52 am 11:52 Cloudy 69 20.6 52 11.1 55 55 SSW 22 35 29.94 1014 10 16.09344 0 0
12:52 pm 12:52 Cloudy 71 21.7 52 11.1 51 51 SSW 21 33 29.94 1014 10 16.09344 0 0
1:52 pm 13:52 Cloudy 71 21.7 51 10.6 49 49 S 17 28 29.94 1014 10 16.09344 0 0
2:52 pm 14:52 Cloudy 74 23.3 52 11.1 46 46 SSW 22 35 29.91 1013 10 16.09344 0 0
3:52 pm 15:52 Cloudy 73 22.8 50 10 44 44 SSW 22 35 29.88 1012 10 16.09344 0 0
4:52 pm 16:52 Cloudy 73 22.8 51 10.6 46 46 SSW 20 31 29.85 1011 10 16.09344 0 0
5:52 pm 17:52 Cloudy 73 22.8 49 9.4 43 43 SSW 21 33 29.83 1010 10 16.09344 0 0
6:52 pm 18:52 Cloudy 68 20 51 10.6 55 55 S 12 19 29.83 1010 10 16.09344 0 0
7:52 pm 19:52 Cloudy 69 20.6 51 10.6 53 53 S 14 22 29.8 1009 10 16.09344 0 0
8:52 pm 20:52 Cloudy 68 20 52 11.1 57 57 S 13 20 29.8 1009 10 16.09344 0 0
9:52 pm 21:52 Cloudy 68 20 54 12.2 61 61 S 14 22 29.8 1009 10 16.09344 0 0
10:52 pm 22:52 Cloudy 67 19.4 55 12.8 66 66 S 15 24 29.77 1008 10 16.09344 0 0
11:52 pm 23:52 Cloudy 70 21.1 57 13.9 64 64 SSW 20 31 29.77 1008 10 16.09344 0 0

Powered by AerisWeather